Temperature
15 15 16 16 19 19 20 20 20 19 19 18 18 18 20 20 19 18 14 14 14 14 14 14 14 14 14 14 14 14 14 14 14 14 14 14 14 14 14 14 14 14 14 14 14 14 14 14 14
15 15 15 17 19 19 20 20 19 19 18 16 16 17 18 17 15 14 14 14 14 14 14 14 14 14 14 14 14 14 14 14 14 14 14 14 14 14 14 13 13 14 14 14 14 13 14 14 14
14 15 16 18 18 20 20 19 19 18 16 16 17 16 16 15 13 13 14 14 13 13 13 13 14 14 14 14 13 13 14 14 14 14 14 14 14 13 13 13 13 13 13 13 13 13 13 13 13
14 14 16 18 18 19 19 19 18 17 16 15 16 16 14 13 12 13 14 13 13 13 13 13 13 13 13 13 13 13 13 13 13 13 13 13 13 13 13 13 13 13 13 13 13 13 13 13 13
14 15 17 17 17 18 18 17 16 18 17 16 16 16 14 12 13 13 13 13 13 13 13 13 13 13 13 13 13 13 13 13 13 13 13 13 13 13 13 13 13 13 13 12 12 13 13 13 13
14 16 17 17 17 17 17 15 16 17 16 15 15 16 14 12 13 13 13 12 12 12 13 13 13 13 13 13 13 13 13 13 13 13 13 13 13 13 13 13 13 12 12 12 12 12 12 13 13
14 16 16 17 17 17 16 15 15 16 16 14 14 15 13 12 12 12 12 12 12 12 12 12 12 12 13 13 13 13 13 13 13 13 13 13 13 13 12 12 12 12 12 12 12 12 12 12 12
13 15 15 16 16 16 15 14 14 15 15 13 13 15 13 11 12 12 12 12 12 12 12 12 12 12 12 12 12 12 12 12 12 12 12 12 12 12 12 12 12 12 12 12 12 12 12 12 12
12 14 15 15 16 16 14 14 12 12 12 11 11 11 11 11 11 11 11 11 11 12 12 12 12 12 12 12 12 12 12 12 12 12 12 12 12 12 12 11 12 12 12 12 12 11 11 12 11
12 14 14 15 15 15 13 13 13 12 13 12 10 10 10 10 11 11 11 11 11 11 11 11 11 11 11 11 11 11 11 11 12 12 12 11 11 11 11 11 11 11 11 11 11 11 11 11 11
12 13 13 13 12 13 13 12 11 13 13 12 11 10 10 10 10 10 10 10 10 10 11 11 11 11 11 11 11 11 11 11 11 11 11 11 11 11 11 11 11 11 11 11 11 10 10 10 10
12 12 11 12 11 11 12 11 11 11 12 10 10 10 10 9 9 10 10 10 10 10 10 10 10 10 10 10 11 11 11 11 11 11 11 11 11 10 10 10 10 10 10 10 10 10 10 10 10
11 11 10 10 9 10 10 10 11 10 9 9 9 9 9 9 9 9 9 9 9 9 10 10 10 10 10 10 10 10 10 10 10 10 10 10 10 10 10 10 10 10 10 9 9 9 9 9 9
11 10 10 9 9 9 10 10 10 9 9 9 9 9 9 8 9 8 9 9 9 9 9 9 9 10 10 10 9 10 10 10 10 10 10 10 10 10 10 10 9 9 9 9 9 9 9 9 9
9 10 10 10 9 9 10 10 10 9 8 8 8 8 8 8 8 8 8 8 9 8 9 9 9 9 9 9 9 9 9 9 9 9 9 9 9 9 9 9 9 9 9 9 9 8 8 8 8
10 11 11 11 9 9 10 11 11 8 8 8 7 7 7 7 7 7 8 8 8 8 8 8 8 8 8 9 9 9 9 8 9 9 9 9 9 9 9 9 9 8 8 8 8 8 8 8 8
10 11 11 11 9 9 10 11 10 7 7 8 7 6 6 6 7 7 7 7 7 8 8 8 8 8 8 8 8 8 8 8 8 8 8 8 8 8 8 8 8 8 8 8 7 7 7 7 7
11 11 11 11 10 9 9 10 9 7 7 7 7 6 5 5 6 6 6 7 7 7 7 7 7 7 7 7 7 7 7 7 7 7 7 8 8 8 8 8 8 7 7 7 7 7 7 7 7
10 10 10 10 9 8 9 9 9 8 7 7 6 6 5 5 5 5 6 6 6 6 7 7 7 7 7 7 7 7 7 7 7 7 7 7 7 7 7 7 7 7 7 7 7 6 6 6 6
8 9 9 9 8 8 9 8 8 8 7 7 6 6 5 5 4 5 5 6 6 6 6 6 6 6 6 6 6 6 6 6 6 6 6 6 6 6 6 6 6 6 6 6 6 6 6 5 5
8 8 8 8 7 7 7 9 9 8 6 5 5 5 5 4 4 4 4 5 5 5 6 6 6 6 6 6 6 6 6 6 6 6 6 6 6 6 6 6 6 6 6 6 6 5 5 5 5
8 8 7 7 7 8 8 9 10 8 7 6 5 5 4 4 4 4 4 4 5 5 5 5 5 5 5 5 5 5 5 5 5 5 5 5 5 5 5 5 5 5 5 5 5 5 5 5 4
7 6 6 6 7 7 7 7 10 8 7 7 6 5 4 4 3 3 4 4 4 4 4 4 4 4 4 4 4 5 5 5 5 5 5 5 5 4 4 5 5 5 5 5 5 5 5 4 4
5 6 6 6 6 7 7 7 9 9 8 8 7 5 4 3 3 3 3 3 3 3 3 3 4 4 4 4 4 4 4 4 4 4 4 4 4 4 4 4 4 4 4 4 4 4 4 4 4
6 7 7 7 7 8 6 6 8 9 7 7 6 4 3 3 3 3 3 3 3 3 3 3 3 3 3 3 3 3 3 4 4 4 4 4 4 4 4 4 4 4 4 4 4 4 4 4 3
5 6 7 8 8 8 6 6 8 6 4 4 3 3 2 2 2 2 2 2 2 2 2 2 2 2 2 2 2 3 3 3 3 3 3 3 3 3 3 3 3 3 3 3 3 3 3 3 3
5 6 5 6 5 6 7 7 6 5 4 3 3 2 2 2 2 2 2 2 2 2 2 2 1 1 1 2 2 2 2 2 3 3 3 3 3 3 3 3 3 3 3 3 3 3 3 2 2
4 5 5 5 6 7 7 7 8 6 5 4 3 2 2 1 1 2 2 2 1 1 1 1 1 1 1 1 1 1 2 2 2 2 2 2 3 3 3 2 2 2 2 2 2 2 2 2 2
3 3 4 5 5 6 7 8 6 6 5 4 3 2 1 1 1 1 1 1 1 1 1 0 0 0 0 1 1 1 1 2 2 2 2 2 2 2 2 2 2 2 2 2 1 1 1 1 1
3 4 4 4 4 4 6 7 4 3 3 2 2 1 0 0 0 0 0 0 -0 -0 -0 -0 -0 -0 0 0 0 1 1 1 1 1 1 1 1 1 1 1 1 1 1 1 1 1 1 1 1
Wind_Speed
1 1 2 3 5 6 11 8 5 4 4 3 2 3 3 3 1 1 3 4 6 9 10 10 10 12 13 13 13 13 13 13 13 13 13 13 13 14 14 14 15 15 16 16 16 17 18 18 19
1 2 3 4 7 10 9 9 8 6 3 3 3 3 3 2 1 2 2 3 7 9 10 10 11 12 12 13 13 13 12 13 13 13 13 13 13 13 14 14 15 15 15 16 16 17 17 18 18
2 1 3 4 8 12 9 6 7 4 3 3 4 2 2 1 1 1 1 5 8 9 9 10 12 13 12 13 13 13 12 12 13 13 13 13 13 13 14 14 14 15 15 15 16 17 17 17 17
3 3 3 7 12 10 7 4 4 6 5 2 3 3 2 1 1 1 2 6 9 9 9 10 12 13 13 13 13 13 13 12 12 13 13 13 13 13 14 14 14 14 15 15 16 16 16 17 17
2 4 7 9 12 8 6 4 4 6 6 4 4 3 3 2 2 2 5 7 8 9 9 11 12 13 13 13 13 12 12 12 12 13 13 12 13 13 13 13 14 14 15 15 15 16 16 16 16
3 4 8 12 12 8 7 6 5 5 5 4 4 4 3 2 3 4 5 6 7 8 8 10 12 13 13 12 12 12 11 12 12 12 13 12 12 13 13 13 13 14 14 15 15 15 15 16 16
5 6 10 11 10 9 7 6 6 6 6 4 4 4 3 2 2 4 5 6 7 7 7 9 10 11 12 12 12 12 12 11 11 12 12 12 12 12 12 13 13 13 14 14 14 14 15 15 15
3 4 8 10 10 9 5 4 3 6 5 2 3 4 3 3 4 5 6 6 6 6 6 7 8 9 10 11 12 13 12 12 11 12 12 12 11 11 12 13 13 13 14 14 14 14 14 14 14
3 6 10 10 9 7 5 6 3 2 3 3 2 1 1 6 7 7 6 5 5 5 5 6 7 8 8 9 10 11 11 11 11 10 11 10 9 9 10 12 13 13 14 14 14 13 13 13 12
5 8 9 6 6 5 5 5 5 5 5 5 4 2 4 8 8 8 7 7 6 5 4 4 6 7 7 8 8 8 8 8 8 8 8 7 7 7 9 12 13 13 13 13 13 12 11 9 9
6 7 5 5 4 4 5 5 5 7 7 7 7 5 6 8 7 7 7 6 6 5 4 4 4 6 7 6 6 6 5 5 6 7 7 7 7 6 7 8 9 10 10 9 9 8 7 7 7
5 6 5 4 3 4 5 5 5 7 6 3 4 6 8 8 6 6 6 5 5 5 4 4 4 5 6 6 5 5 5 4 4 5 6 6 5 5 5 5 6 6 6 6 6 6 6 7 7
7 4 3 2 2 2 3 5 5 6 5 3 5 7 8 8 6 4 4 4 3 4 3 4 4 4 5 5 4 4 4 4 5 4 5 5 5 5 5 5 5 6 6 6 6 6 6 6 6
4 4 4 3 3 3 4 6 6 7 5 5 6 7 7 7 6 4 3 4 3 3 3 3 3 4 5 4 4 4 4 4 5 4 5 5 5 5 5 5 4 5 5 6 6 6 6 5 5
3 4 4 4 3 2 3 7 8 7 6 7 6 6 6 6 5 4 3 3 4 3 2 3 3 3 4 5 4 4 4 5 4 4 5 5 5 5 5 5 4 4 6 6 6 6 6 5 5
4 5 7 5 4 3 6 10 5 4 8 9 8 7 6 5 4 3 3 2 3 3 3 2 2 3 3 3 4 3 4 5 4 4 4 5 5 5 5 5 4 5 6 5 5 5 4 4 4
4 6 8 6 4 3 7 8 3 3 7 8 7 6 6 5 4 3 2 2 2 3 3 3 2 3 3 3 4 4 4 4 4 4 4 5 5 5 5 5 5 6 5 5 5 4 4 4 4
6 7 7 8 3 5 8 9 6 5 6 7 6 6 6 5 5 4 3 2 2 2 3 3 3 2 2 3 3 4 4 3 3 4 4 5 5 5 5 5 6 6 5 5 5 5 4 4 4
4 7 8 6 2 5 10 11 10 7 7 8 7 7 7 7 5 4 3 2 2 1 2 2 3 2 3 3 3 3 3 3 3 3 4 5 5 6 5 5 6 6 6 6 7 5 6 4 4
5 6 7 5 3 5 8 11 10 8 8 9 9 8 8 7 5 4 3 3 3 2 2 3 3 3 3 3 3 3 3 3 3 3 4 4 5 5 5 6 6 6 6 7 7 7 4 3 4
7 7 6 6 5 3 6 9 9 6 6 6 7 7 7 7 6 5 5 4 3 3 3 2 3 3 3 3 2 2 2 2 2 3 3 4 5 5 5 7 7 7 7 7 8 8 6 5 4
7 5 5 6 5 4 4 7 8 7 7 7 7 7 7 6 6 5 5 5 4 3 3 3 2 2 3 3 3 5 4 4 4 4 3 4 5 5 5 5 7 7 6 7 7 7 6 7 6
3 1 4 5 6 6 6 7 8 5 8 9 9 8 7 6 6 6 5 5 3 3 3 2 2 2 2 3 3 4 4 3 3 3 4 4 4 5 6 5 6 6 6 7 8 7 7 6 6
2 1 1 2 4 7 8 8 9 6 8 7 7 7 6 5 5 5 5 4 3 2 2 2 2 2 2 2 3 3 4 3 3 4 4 4 4 4 6 6 6 7 6 7 7 7 8 7 7
3 3 3 4 5 6 3 7 9 4 5 6 6 5 5 5 5 5 5 4 4 3 2 2 3 3 2 3 3 3 4 4 5 5 5 5 4 4 5 6 6 6 7 7 7 7 7 8 8
6 5 5 5 5 4 3 8 6 2 3 4 4 4 4 4 4 4 5 4 4 3 3 3 3 3 3 3 3 3 3 3 4 4 4 6 5 5 6 6 6 6 8 8 7 6 7 7 8
4 6 3 3 3 6 6 6 7 3 4 3 3 3 4 4 4 4 4 4 4 4 4 4 4 4 4 4 3 3 3 3 3 4 4 5 5 5 6 6 6 6 7 8 8 7 8 7 7
2 3 3 4 4 7 8 9 6 4 5 3 4 5 5 4 4 4 4 4 4 4 4 4 4 4 4 4 3 3 3 3 3 3 4 4 5 5 5 6 6 6 7 7 8 7 8 8 8
4 4 4 4 5 6 7 6 2 5 3 4 5 5 5 4 4 4 4 3 4 3 3 3 3 3 3 3 3 3 3 3 3 3 3 4 5 5 5 6 6 7 7 7 8 8 8 9 9
6 7 7 6 6 6 8 8 1 2 3 4 5 5 5 5 4 4 4 3 3 4 3 3 3 3 3 3 3 3 3 3 3 3 3 3 3 4 5 6 6 7 7 7 9 9 9 10 10
Wind_Direction
296 214 216 207 205 215 226 216 215 194 199 201 183 195 197 195 202 96 64 141 145 150 152 150 147 145 145 141 135 129 125 122 118 116 113 110 107 104 102 99 97 94 92 91 91 89 90 89 88
222 198 205 211 219 217 221 215 208 206 191 171 178 190 192 188 31 61 96 147 152 148 148 146 143 141 141 140 134 130 126 123 119 117 113 111 109 106 104 101 98 97 95 93 93 92 91 91 89
182 218 204 205 222 225 215 198 205 189 176 190 179 196 221 193 84 98 86 156 153 148 147 141 140 137 136 138 136 133 129 126 122 119 115 111 109 106 104 102 100 99 97 96 95 94 93 92 91
198 180 204 223 223 227 227 194 197 190 188 203 193 165 157 50 12 11 150 158 153 147 145 140 139 135 132 129 134 135 132 128 125 122 118 114 110 107 104 103 102 101 100 98 96 95 96 94 91
216 193 207 222 229 225 229 231 213 207 198 197 205 194 162 100 41 93 146 153 150 145 143 141 137 135 132 131 128 130 132 131 128 125 120 117 114 111 108 105 103 103 103 101 100 97 97 97 94
188 203 217 223 223 223 226 223 210 211 204 205 211 208 164 103 93 114 140 147 142 138 137 141 137 129 128 127 126 124 125 129 130 127 124 121 117 114 112 109 107 106 104 102 102 100 99 98 96
209 208 226 227 224 224 222 213 214 212 207 206 215 206 171 133 114 125 132 137 131 128 127 126 133 134 130 127 125 122 119 119 125 127 125 122 118 116 114 111 109 108 106 104 102 102 101 100 98
224 209 222 224 225 225 203 198 229 230 219 194 217 211 192 166 138 133 129 124 120 119 121 121 127 129 130 129 123 118 116 113 112 116 118 116 116 115 114 113 110 110 108 106 104 103 102 100 98
211 219 223 219 222 219 192 201 200 231 197 198 213 254 32 137 140 138 131 122 119 119 118 122 125 126 129 130 123 116 111 109 108 112 116 122 125 122 119 111 109 109 107 107 105 103 100 100 96
205 223 228 226 228 216 200 211 198 198 208 208 196 128 119 139 145 147 147 149 146 145 136 124 125 124 122 118 118 116 115 117 115 117 126 130 128 122 118 111 107 107 105 105 104 104 104 104 102
208 228 224 225 229 221 212 214 209 212 224 223 210 179 147 150 151 157 162 162 162 157 142 132 126 125 121 115 117 117 117 119 120 119 119 127 126 125 124 124 120 116 112 109 108 107 104 102 100
210 225 221 223 231 223 215 212 213 226 230 222 200 171 158 156 164 169 170 169 165 156 151 146 131 125 124 121 121 123 120 125 123 127 126 128 130 134 129 125 129 126 121 118 113 104 105 102 100
214 216 211 224 231 236 228 226 227 230 224 187 158 159 165 166 174 179 170 155 151 155 158 157 139 139 133 127 125 128 132 135 132 133 138 135 140 142 135 129 130 131 128 128 120 115 110 104 99
202 206 219 232 230 237 235 249 230 231 207 185 173 171 173 176 183 177 178 169 163 159 172 159 151 149 141 139 140 139 139 137 140 141 145 145 144 144 140 133 131 129 129 126 124 123 115 106 103
188 204 227 227 224 222 225 251 231 221 197 197 197 189 181 182 182 188 194 193 181 178 172 172 167 150 152 153 146 142 141 144 145 145 146 147 140 149 147 140 136 130 129 127 123 120 113 108 108
193 212 229 214 207 213 223 248 225 196 199 209 207 199 188 179 183 198 205 207 190 177 172 166 166 157 153 149 145 144 150 150 146 145 146 146 140 151 149 146 141 141 137 135 135 133 123 120 119
207 230 236 229 201 210 222 248 222 201 205 211 204 195 187 187 193 207 217 214 204 184 174 169 158 159 161 151 150 145 148 151 148 147 150 147 151 148 153 150 147 149 144 140 140 140 137 133 124
224 231 235 239 220 222 234 248 248 227 216 217 210 204 201 204 209 209 211 208 201 193 172 165 158 147 150 152 144 143 145 148 150 151 156 156 159 156 156 152 154 154 151 150 150 144 138 137 131
237 239 250 256 267 245 247 258 259 241 229 225 219 215 213 217 218 210 205 197 188 185 166 164 161 151 146 158 168 168 174 171 167 162 165 168 168 167 161 162 162 166 166 163 157 147 144 142 144
229 245 257 271 290 266 265 270 266 247 232 226 224 223 221 221 214 212 209 201 197 194 181 180 181 167 165 180 186 185 177 186 176 163 165 173 173 175 175 176 172 174 170 165 164 159 155 159 172
237 238 255 275 310 265 276 270 248 239 226 227 229 231 227 222 216 208 208 207 206 211 206 196 196 188 182 180 167 149 154 163 178 182 185 186 183 178 188 188 179 179 178 176 175 176 173 175 185
243 235 245 259 265 261 248 268 249 236 233 231 229 229 228 225 222 215 211 209 210 222 215 199 192 187 191 179 175 176 187 194 205 200 200 195 192 190 191 194 189 184 181 182 181 181 182 181 186
236 236 239 245 249 265 243 257 265 226 241 242 235 232 230 225 222 218 213 209 210 220 212 201 190 180 184 193 185 183 193 205 202 200 202 201 196 197 193 193 192 187 187 188 188 186 187 191 195
174 147 180 210 226 248 235 237 265 225 235 244 236 231 228 224 221 219 210 205 204 210 205 197 194 193 190 193 198 196 190 194 200 205 203 209 210 201 200 198 197 194 192 194 195 193 195 198 199
193 204 234 229 226 246 194 234 255 246 240 243 245 234 231 224 218 214 211 210 205 206 203 203 201 203 204 203 209 218 208 202 207 214 210 209 213 214 211 204 206 204 198 198 198 199 201 202 202
209 218 233 251 253 270 223 238 257 288 281 272 271 254 238 234 224 218 218 216 211 214 207 207 211 211 210 213 220 227 220 216 216 222 222 214 213 215 212 207 208 215 204 200 201 205 209 207 209
200 217 253 271 273 269 250 259 279 262 272 277 282 274 245 240 228 221 220 219 214 214 214 213 216 220 216 218 219 225 224 226 230 233 228 225 219 215 210 205 205 213 211 204 202 208 210 212 214
240 185 192 220 248 258 261 258 254 238 248 271 287 275 262 252 234 224 222 223 222 222 220 217 218 223 225 222 221 227 229 235 236 234 230 229 218 211 209 207 208 209 214 208 208 210 210 213 216
180 190 213 222 248 254 266 264 255 237 252 266 278 276 258 249 249 240 233 232 226 220 215 216 220 226 229 232 233 235 234 237 238 234 236 242 221 207 209 209 212 212 216 214 213 215 211 214 217
221 220 209 230 239 243 263 271 90 265 287 283 282 279 269 259 259 259 243 233 231 227 223 219 221 228 235 235 237 241 241 239 239 238 243 247 233 214 212 213 216 218 218 219 218 219 217 217 217
Height
1514 1515 1517 1519 1519 1514 1510 1508 1510 1513 1514 1517 1518 1518 1517 1518 1520 1525 1525 1523 1525 1528 1530 1532 1534 1537 1538 1540 1541 1542 1543 1544 1545 1545 1546 1546 1547 1547 1547 1547 1547 1548 1548 1548 1548 1548 1548 1548 1549
1514 1516 1518 1518 1513 1510 1507 1507 1510 1512 1515 1518 1519 1519 1519 1520 1522 1523 1522 1523 1525 1528 1530 1532 1534 1536 1538 1540 1542 1543 1544 1545 1545 1546 1547 1547 1548 1548 1548 1549 1549 1549 1549 1549 1549 1549 1550 1550 1551
1514 1515 1518 1514 1509 1504 1504 1507 1509 1514 1517 1517 1518 1519 1520 1521 1522 1522 1522 1523 1525 1528 1530 1532 1534 1536 1538 1540 1542 1543 1544 1545 1546 1547 1548 1548 1549 1549 1549 1550 1550 1550 1551 1551 1551 1551 1551 1552 1552
1514 1516 1517 1512 1506 1504 1505 1508 1511 1513 1516 1517 1517 1519 1520 1521 1521 1521 1521 1523 1526 1528 1530 1532 1534 1536 1538 1540 1541 1543 1544 1545 1546 1547 1548 1549 1550 1550 1550 1551 1551 1552 1552 1552 1552 1552 1553 1553 1554
1513 1514 1512 1509 1505 1506 1509 1511 1512 1512 1514 1516 1517 1517 1520 1521 1520 1520 1521 1523 1526 1528 1530 1532 1534 1536 1538 1540 1541 1543 1544 1545 1546 1548 1549 1550 1550 1551 1551 1552 1552 1553 1553 1553 1553 1554 1554 1554 1555
1513 1510 1507 1504 1504 1507 1510 1512 1513 1512 1514 1516 1517 1517 1519 1520 1519 1520 1521 1524 1526 1528 1530 1532 1534 1536 1537 1539 1541 1543 1544 1545 1547 1548 1549 1550 1551 1551 1552 1552 1553 1554 1554 1554 1555 1555 1555 1556 1556
1511 1508 1503 1501 1503 1505 1509 1512 1512 1512 1513 1516 1517 1517 1518 1519 1519 1520 1521 1523 1525 1527 1529 1531 1533 1535 1537 1539 1541 1542 1544 1545 1546 1547 1549 1550 1551 1551 1552 1553 1553 1554 1554 1555 1555 1556 1556 1557 1557
1509 1508 1504 1503 1503 1504 1509 1511 1512 1512 1513 1516 1516 1516 1517 1518 1518 1519 1521 1523 1525 1527 1529 1530 1532 1534 1536 1538 1540 1542 1543 1544 1546 1547 1548 1549 1550 1551 1552 1553 1553 1554 1554 1555 1556 1557 1557 1558 1558
1509 1508 1502 1501 1503 1504 1508 1510 1512 1512 1513 1514 1515 1516 1517 1517 1517 1519 1521 1522 1524 1526 1527 1529 1531 1533 1535 1537 1539 1541 1542 1544 1545 1546 1547 1549 1550 1551 1552 1553 1553 1554 1554 1555 1556 1557 1557 1558 1559
1507 1504 1501 1503 1503 1504 1507 1509 1511 1512 1512 1513 1514 1514 1515 1516 1517 1518 1519 1521 1522 1524 1526 1528 1530 1531 1534 1536 1538 1539 1541 1543 1544 1545 1547 1548 1549 1550 1551 1552 1553 1553 1554 1555 1556 1557 1557 1558 1559
1505 1503 1504 1505 1506 1506 1507 1508 1510 1509 1509 1511 1512 1512 1513 1515 1516 1517 1518 1519 1521 1523 1524 1526 1528 1530 1532 1534 1536 1538 1540 1541 1543 1544 1545 1547 1548 1549 1550 1551 1552 1553 1554 1555 1556 1556 1557 1558 1559
1505 1504 1505 1505 1506 1506 1506 1507 1508 1508 1508 1509 1510 1510 1511 1513 1514 1515 1516 1518 1520 1521 1523 1525 1526 1528 1530 1532 1534 1536 1538 1539 1541 1542 1544 1545 1546 1548 1549 1550 1551 1552 1553 1554 1555 1556 1557 1558 1559
1503 1504 1505 1506 1506 1506 1506 1506 1506 1506 1507 1507 1508 1509 1510 1511 1513 1514 1515 1516 1518 1519 1521 1522 1524 1526 1528 1530 1532 1534 1536 1537 1539 1540 1542 1543 1545 1546 1547 1549 1550 1551 1552 1553 1554 1555 1556 1557 1558
1503 1503 1504 1505 1505 1505 1505 1505 1505 1503 1505 1506 1507 1507 1508 1509 1511 1512 1513 1514 1515 1516 1518 1520 1522 1524 1526 1528 1530 1532 1533 1535 1537 1539 1540 1541 1542 1544 1545 1547 1548 1549 1550 1552 1553 1554 1555 1556 1557
1503 1503 1503 1503 1504 1504 1505 1502 1501 1502 1503 1504 1504 1505 1506 1507 1509 1509 1510 1511 1512 1514 1516 1517 1519 1521 1523 1526 1527 1529 1531 1532 1534 1536 1537 1539 1540 1542 1543 1545 1546 1547 1549 1550 1551 1553 1554 1555 1556
1502 1500 1498 1500 1502 1503 1505 1496 1498 1500 1501 1501 1502 1503 1504 1505 1506 1507 1508 1509 1510 1511 1513 1515 1517 1518 1520 1523 1524 1527 1528 1530 1531 1533 1535 1536 1538 1539 1541 1542 1544 1545 1547 1548 1549 1551 1552 1554 1555
1498 1495 1494 1497 1500 1501 1500 1494 1497 1498 1499 1499 1500 1501 1502 1503 1503 1504 1505 1506 1507 1508 1510 1512 1513 1515 1517 1520 1522 1524 1526 1527 1528 1530 1532 1533 1535 1536 1538 1540 1541 1543 1544 1546 1547 1549 1550 1552 1553
1494 1493 1494 1494 1497 1499 1497 1494 1496 1497 1497 1497 1498 1499 1500 1500 1500 1502 1503 1503 1504 1506 1507 1508 1510 1512 1514 1516 1519 1520 1522 1524 1525 1527 1528 1530 1532 1533 1535 1537 1538 1540 1541 1543 1545 1546 1548 1550 1551
1497 1496 1494 1494 1498 1498 1494 1492 1492 1494 1495 1495 1495 1496 1497 1497 1498 1499 1499 1500 1501 1502 1503 1504 1506 1508 1510 1512 1514 1516 1518 1520 1522 1523 1525 1527 1528 1530 1531 1533 1535 1537 1538 1540 1542 1544 1545 1547 1549
1498 1497 1495 1496 1499 1497 1493 1490 1489 1490 1491 1491 1492 1492 1493 1494 1495 1495 1495 1497 1497 1498 1499 1501 1502 1504 1506 1508 1510 1512 1514 1516 1518 1520 1521 1523 1525 1526 1528 1530 1531 1533 1535 1536 1538 1540 1542 1544 1546
1497 1496 1496 1497 1498 1497 1496 1485 1483 1486 1488 1489 1489 1489 1490 1491 1491 1491 1492 1493 1494 1495 1496 1497 1499 1500 1503 1505 1506 1508 1510 1512 1514 1515 1517 1519 1521 1522 1524 1525 1528 1529 1531 1532 1534 1537 1539 1540 1543
1496 1497 1499 1499 1497 1490 1495 1482 1475 1480 1483 1485 1486 1486 1486 1487 1488 1489 1489 1490 1490 1492 1493 1494 1495 1497 1499 1500 1501 1503 1505 1507 1508 1511 1513 1515 1516 1518 1520 1521 1523 1525 1527 1528 1530 1532 1535 1537 1539
1497 1500 1500 1499 1497 1495 1493 1490 1471 1478 1479 1479 1481 1482 1482 1483 1484 1485 1486 1487 1488 1489 1490 1491 1492 1494 1495 1496 1498 1499 1501 1503 1505 1507 1509 1510 1512 1514 1515 1517 1518 1520 1522 1524 1526 1528 1530 1532 1535
1501 1501 1501 1500 1496 1492 1487 1487 1467 1471 1471 1473 1476 1478 1479 1481 1481 1482 1483 1484 1485 1486 1486 1487 1488 1490 1491 1492 1494 1496 1497 1499 1501 1502 1504 1505 1507 1509 1510 1512 1514 1516 1518 1520 1522 1523 1526 1528 1530
1500 1497 1491 1488 1486 1479 1487 1485 1469 1467 1470 1472 1474 1476 1477 1478 1479 1479 1480 1481 1481 1482 1482 1484 1485 1486 1487 1489 1490 1491 1493 1495 1496 1498 1499 1500 1502 1503 1506 1507 1510 1511 1513 1515 1517 1519 1521 1523 1525
1498 1495 1490 1484 1477 1474 1487 1479 1467 1472 1472 1472 1473 1474 1475 1475 1476 1476 1477 1478 1478 1479 1479 1480 1481 1482 1483 1485 1486 1488 1489 1490 1492 1493 1494 1495 1497 1498 1501 1503 1505 1507 1509 1511 1513 1515 1516 1518 1520
1496 1495 1496 1493 1490 1485 1473 1471 1470 1471 1471 1471 1472 1472 1472 1473 1473 1474 1475 1475 1475 1476 1477 1477 1478 1479 1480 1481 1482 1483 1485 1486 1487 1488 1489 1491 1492 1494 1496 1498 1500 1502 1504 1506 1508 1509 1512 1514 1515
1499 1497 1497 1493 1486 1476 1466 1466 1461 1466 1467 1469 1470 1470 1470 1471 1471 1472 1472 1472 1473 1473 1474 1474 1475 1475 1476 1477 1478 1479 1480 1482 1483 1484 1485 1486 1487 1489 1491 1493 1495 1497 1499 1500 1502 1504 1506 1508 1510
1498 1498 1495 1490 1488 1477 1466 1459 1462 1463 1466 1468 1469 1469 1468 1468 1468 1469 1469 1469 1470 1470 1470 1470 1471 1472 1472 1473 1474 1475 1476 1477 1478 1479 1480 1481 1482 1484 1485 1488 1489 1491 1493 1495 1497 1498 1500 1502 1504
1494 1492 1493 1488 1486 1485 1472 1463 1466 1466 1467 1468 1468 1467 1467 1466 1466 1466 1467 1467 1467 1467 1467 1467 1467 1467 1468 1469 1469 1471 1472 1473 1473 1474 1475 1476 1477 1479 1480 1482 1484 1486 1487 1489 1491 1492 1494 1496 1498